Time,TemperatureF,DewpointF,PressureIn,WindDirection,WindDirectionDegrees,WindSpeedMPH,WindSpeedGustMPH,Humidity,HourlyPrecipIn,Conditions,Clouds,dailyrainin,SolarRadiationWatts/m^2,SoftwareType,DateUTC
2013-08-07 00:01:00,72.0,64.0,-100.00,NNE,12,3.0,5.0,77,0.00,,,0.04,1.000000,,2013-08-07 07:01:00,
2013-08-07 00:33:00,73.0,65.0,-100.00,NE,43,4.0,5.0,77,0.00,,,0.02,1.000000,,2013-08-07 07:33:00,
2013-08-07 00:43:00,73.0,65.0,-100.00,NE,43,4.0,5.0,77,0.00,,,0.02,1.000000,,2013-08-07 07:43:00,
2013-08-07 00:52:00,73.0,65.0,-100.00,NE,43,4.0,5.0,77,0.00,,,0.02,1.000000,,2013-08-07 07:52:00,
2013-08-07 01:01:00,73.0,65.0,-100.00,NE,43,4.0,5.0,77,0.00,,,0.02,1.000000,,2013-08-07 08:01:00,
2013-08-07 01:32:00,73.0,62.0,-100.00,NNE,28,5.0,8.0,69,0.00,,,0.01,1.000000,,2013-08-07 08:32:00,
2013-08-07 01:44:00,73.0,62.0,-100.00,NNE,28,5.0,8.0,69,0.00,,,0.01,1.000000,,2013-08-07 08:44:00,
2013-08-07 01:52:00,73.0,62.0,-100.00,NNE,28,5.0,8.0,69,0.00,,,0.01,1.000000,,2013-08-07 08:52:00,
2013-08-07 02:01:00,73.0,62.0,-100.00,NNE,28,5.0,8.0,69,0.00,,,0.01,1.000000,,2013-08-07 09:01:00,
2013-08-07 02:43:00,70.0,61.0,-100.00,ESE,109,3.0,7.0,73,0.00,,,0.01,1.000000,,2013-08-07 09:43:00,
2013-08-07 02:54:00,70.0,61.0,-100.00,ESE,109,3.0,7.0,73,0.00,,,0.01,1.000000,,2013-08-07 09:54:00,
2013-08-07 03:01:00,70.0,61.0,-100.00,ESE,109,3.0,7.0,73,0.00,,,0.01,1.000000,,2013-08-07 10:01:00,
2013-08-07 03:32:00,68.0,63.0,-100.00,North,9,1.0,4.0,85,0.00,,,0.01,1.000000,,2013-08-07 10:32:00,
2013-08-07 03:43:00,68.0,63.0,-100.00,North,9,1.0,4.0,85,0.00,,,0.01,1.000000,,2013-08-07 10:43:00,
2013-08-07 03:52:00,68.0,63.0,-100.00,North,9,1.0,4.0,85,0.00,,,0.01,1.000000,,2013-08-07 10:52:00,
2013-08-07 04:01:00,68.0,63.0,-100.00,North,9,1.0,4.0,85,0.00,,,0.01,1.000000,,2013-08-07 11:01:00,
2013-08-07 04:32:00,67.0,63.0,-100.00,NNW,332,1.0,4.0,86,0.00,,,0.01,1.000000,,2013-08-07 11:32:00,
2013-08-07 04:43:00,67.0,63.0,-100.00,NNW,332,1.0,4.0,86,0.00,,,0.01,1.000000,,2013-08-07 11:43:00,
2013-08-07 04:52:00,67.0,63.0,-100.00,NNW,332,1.0,4.0,86,0.00,,,0.01,1.000000,,2013-08-07 11:52:00,
2013-08-07 05:02:00,67.0,63.0,-100.00,NNW,332,1.0,4.0,86,0.00,,,0.01,1.000000,,2013-08-07 12:02:00,
2013-08-07 05:33:00,67.0,63.0,-100.00,NW,318,2.0,4.0,86,0.00,,,0.01,1.000000,,2013-08-07 12:33:00,
2013-08-07 05:43:00,67.0,63.0,-100.00,NW,318,2.0,4.0,86,0.00,,,0.01,1.000000,,2013-08-07 12:43:00,
2013-08-07 05:52:00,67.0,63.0,-100.00,NW,318,2.0,4.0,86,0.00,,,0.01,1.000000,,2013-08-07 12:52:00,
2013-08-07 06:02:00,67.0,63.0,-100.00,NW,318,2.0,4.0,86,0.00,,,0.01,1.000000,,2013-08-07 13:02:00,
2013-08-07 06:44:00,69.0,63.0,-100.00,NNW,333,2.0,3.0,82,0.00,,,0.01,3.000000,,2013-08-07 13:44:00,
2013-08-07 06:53:00,69.0,63.0,-100.00,NNW,333,2.0,3.0,82,0.00,,,0.01,3.000000,,2013-08-07 13:53:00,
2013-08-07 07:01:00,69.0,63.0,-100.00,NNW,333,2.0,3.0,82,0.00,,,0.01,3.000000,,2013-08-07 14:01:00,
2013-08-07 07:43:00,73.0,67.0,-100.00,SE,145,2.0,4.0,81,0.00,,,0.01,55.000000,,2013-08-07 14:43:00,
2013-08-07 07:52:00,73.0,67.0,-100.00,SE,145,2.0,4.0,81,0.00,,,0.01,55.000000,,2013-08-07 14:52:00,
2013-08-07 08:02:00,73.0,67.0,-100.00,SE,145,2.0,4.0,81,0.00,,,0.01,55.000000,,2013-08-07 15:02:00,
2013-08-07 08:33:00,77.0,63.0,-100.00,WSW,245,3.0,5.0,63,0.00,,,0.01,276.000000,,2013-08-07 15:33:00,
2013-08-07 08:43:00,77.0,63.0,-100.00,WSW,245,3.0,5.0,63,0.00,,,0.01,276.000000,,2013-08-07 15:43:00,
2013-08-07 08:53:00,77.0,63.0,-100.00,WSW,245,3.0,5.0,63,0.00,,,0.01,276.000000,,2013-08-07 15:53:00,
2013-08-07 09:02:00,77.0,63.0,-100.00,WSW,245,3.0,5.0,63,0.00,,,0.01,276.000000,,2013-08-07 16:02:00,
2013-08-07 09:33:00,82.0,65.0,-100.00,SSW,207,3.0,6.0,56,0.00,,,-99.99,504.000000,,2013-08-07 16:33:00,
2013-08-07 09:43:00,82.0,65.0,-100.00,SSW,207,3.0,6.0,56,0.00,,,-99.99,504.000000,,2013-08-07 16:43:00,
2013-08-07 09:53:00,82.0,65.0,-100.00,SSW,207,3.0,6.0,56,0.00,,,-99.99,504.000000,,2013-08-07 16:53:00,
2013-08-07 10:01:00,82.0,65.0,-100.00,SSW,207,3.0,6.0,56,0.00,,,-99.99,504.000000,,2013-08-07 17:01:00,
2013-08-07 10:33:00,86.0,65.0,-100.00,SSE,147,4.0,7.0,49,0.00,,,0.01,692.000000,,2013-08-07 17:33:00,
2013-08-07 10:43:00,86.0,65.0,-100.00,SSE,147,4.0,7.0,49,0.00,,,0.01,692.000000,,2013-08-07 17:43:00,
2013-08-07 10:52:00,86.0,65.0,-100.00,SSE,147,4.0,7.0,49,0.00,,,0.01,692.000000,,2013-08-07 17:52:00,
2013-08-07 11:02:00,86.0,65.0,-100.00,SSE,147,4.0,7.0,49,0.00,,,0.01,692.000000,,2013-08-07 18:02:00,
2013-08-07 11:32:00,90.0,62.0,-100.00,SSW,212,5.0,11.0,40,0.00,,,0.01,833.000000,,2013-08-07 18:32:00,
2013-08-07 11:43:00,90.0,62.0,-100.00,SSW,212,5.0,11.0,40,0.00,,,0.01,833.000000,,2013-08-07 18:43:00,
2013-08-07 11:52:00,90.0,62.0,-100.00,SSW,212,5.0,11.0,40,0.00,,,0.01,833.000000,,2013-08-07 18:52:00,
2013-08-07 12:01:00,90.0,62.0,-100.00,SSW,212,5.0,11.0,40,0.00,,,0.01,833.000000,,2013-08-07 19:01:00,
2013-08-07 12:44:00,92.0,58.0,-100.00,WSW,256,7.0,16.0,32,0.00,,,0.01,924.000000,,2013-08-07 19:44:00,
2013-08-07 12:52:00,92.0,58.0,-100.00,WSW,256,7.0,16.0,32,0.00,,,0.01,924.000000,,2013-08-07 19:52:00,
2013-08-07 13:02:00,92.0,58.0,-100.00,WSW,256,7.0,16.0,32,0.00,,,0.01,924.000000,,2013-08-07 20:02:00,
2013-08-07 13:43:00,94.0,58.0,-100.00,WSW,251,12.0,19.0,30,0.00,,,0.01,833.000000,,2013-08-07 20:43:00,
2013-08-07 13:52:00,94.0,58.0,-100.00,WSW,251,12.0,19.0,30,0.00,,,0.01,833.000000,,2013-08-07 20:52:00,
2013-08-07 14:01:00,94.0,58.0,-100.00,WSW,251,12.0,19.0,30,0.00,,,0.01,833.000000,,2013-08-07 21:01:00,
2013-08-07 14:43:00,97.0,56.0,-100.00,West,280,10.0,19.0,26,0.00,,,0.01,957.000000,,2013-08-07 21:43:00,
2013-08-07 14:52:00,97.0,56.0,-100.00,West,280,10.0,19.0,26,0.00,,,0.01,957.000000,,2013-08-07 21:52:00,
2013-08-07 15:01:00,97.0,56.0,-100.00,West,280,10.0,19.0,26,0.00,,,0.01,957.000000,,2013-08-07 22:01:00,
2013-08-07 15:32:00,96.0,52.0,-100.00,WSW,258,13.0,21.0,23,0.00,,,0.00,887.000000,,2013-08-07 22:32:00,
2013-08-07 15:43:00,96.0,52.0,-100.00,WSW,258,13.0,21.0,23,0.00,,,0.00,887.000000,,2013-08-07 22:43:00,
2013-08-07 15:52:00,96.0,52.0,-100.00,WSW,258,13.0,21.0,23,0.00,,,0.00,887.000000,,2013-08-07 22:52:00,
2013-08-07 16:01:00,96.0,52.0,-100.00,WSW,258,13.0,21.0,23,0.00,,,0.00,887.000000,,2013-08-07 23:01:00,
2013-08-07 16:43:00,96.0,47.0,-100.00,West,268,12.0,20.0,19,0.00,,,0.00,708.000000,,2013-08-07 23:43:00,
2013-08-07 16:52:00,96.0,47.0,-100.00,West,268,12.0,20.0,19,0.00,,,0.00,708.000000,,2013-08-07 23:52:00,
2013-08-07 17:01:00,96.0,47.0,-100.00,West,268,12.0,20.0,19,0.00,,,0.00,708.000000,,2013-08-08 00:01:00,
2013-08-07 17:43:00,95.0,49.0,-100.00,WSW,249,10.0,17.0,21,0.00,,,0.00,496.000000,,2013-08-08 00:43:00,
2013-08-07 17:52:00,95.0,49.0,-100.00,WSW,249,10.0,17.0,21,0.00,,,0.00,496.000000,,2013-08-08 00:52:00,
2013-08-07 18:02:00,95.0,49.0,-100.00,WSW,249,10.0,17.0,21,0.00,,,0.00,496.000000,,2013-08-08 01:02:00,
2013-08-07 18:32:00,93.0,48.0,-100.00,WSW,252,8.0,19.0,22,0.00,,,0.00,283.000000,,2013-08-08 01:32:00,
2013-08-07 18:43:00,93.0,48.0,-100.00,WSW,252,8.0,19.0,22,0.00,,,0.00,283.000000,,2013-08-08 01:43:00,
2013-08-07 18:52:00,93.0,48.0,-100.00,WSW,252,8.0,19.0,22,0.00,,,0.00,283.000000,,2013-08-08 01:52:00,
2013-08-07 19:02:00,93.0,48.0,-100.00,WSW,252,8.0,19.0,22,0.00,,,0.00,283.000000,,2013-08-08 02:02:00,
2013-08-07 19:32:00,89.0,45.0,-100.00,WNW,298,4.0,12.0,22,0.00,,,0.00,82.000000,,2013-08-08 02:32:00,
2013-08-07 19:43:00,89.0,45.0,-100.00,WNW,298,4.0,12.0,22,0.00,,,0.00,82.000000,,2013-08-08 02:43:00,
2013-08-07 19:52:00,89.0,45.0,-100.00,WNW,298,4.0,12.0,22,0.00,,,0.00,82.000000,,2013-08-08 02:52:00,
2013-08-07 20:01:00,89.0,45.0,-100.00,WNW,298,4.0,12.0,22,0.00,,,0.00,82.000000,,2013-08-08 03:01:00,
2013-08-07 20:32:00,83.0,48.0,-100.00,NNE,30,3.0,6.0,30,0.00,,,0.00,2.000000,,2013-08-08 03:32:00,
2013-08-07 20:43:00,83.0,48.0,-100.00,NNE,30,3.0,6.0,30,0.00,,,0.00,2.000000,,2013-08-08 03:43:00,
2013-08-07 20:52:00,83.0,48.0,-100.00,NNE,30,3.0,6.0,30,0.00,,,0.00,2.000000,,2013-08-08 03:52:00,
2013-08-07 21:01:00,83.0,48.0,-100.00,NNE,30,3.0,6.0,30,0.00,,,0.00,2.000000,,2013-08-08 04:01:00,
2013-08-07 21:33:00,85.0,48.0,-100.00,NNE,21,5.0,10.0,28,0.00,,,0.00,1.000000,,2013-08-08 04:33:00,
2013-08-07 21:44:00,85.0,48.0,-100.00,NNE,21,5.0,10.0,28,0.00,,,0.00,1.000000,,2013-08-08 04:44:00,
2013-08-07 21:53:00,85.0,48.0,-100.00,NNE,21,5.0,10.0,28,0.00,,,0.00,1.000000,,2013-08-08 04:53:00,
2013-08-07 22:01:00,85.0,48.0,-100.00,NNE,21,5.0,10.0,28,0.00,,,0.00,1.000000,,2013-08-08 05:01:00,
2013-08-07 22:33:00,81.0,48.0,-100.00,NE,42,2.0,10.0,32,0.00,,,0.00,1.000000,,2013-08-08 05:33:00,
2013-08-07 22:43:00,81.0,48.0,-100.00,NE,42,2.0,10.0,32,0.00,,,0.00,1.000000,,2013-08-08 05:43:00,
2013-08-07 22:52:00,81.0,48.0,-100.00,NE,42,2.0,10.0,32,0.00,,,0.00,1.000000,,2013-08-08 05:52:00,
2013-08-07 23:01:00,81.0,48.0,-100.00,NE,42,2.0,10.0,32,0.00,,,0.00,1.000000,,2013-08-08 06:01:00,
2013-08-07 23:32:00,79.0,50.0,-100.00,NNE,19,2.0,6.0,37,0.00,,,0.00,1.000000,,2013-08-08 06:32:00,
2013-08-07 23:43:00,79.0,50.0,-100.00,NNE,19,2.0,6.0,37,0.00,,,0.00,1.000000,,2013-08-08 06:43:00,
2013-08-07 23:52:00,79.0,50.0,-100.00,NNE,19,2.0,6.0,37,0.00,,,0.00,1.000000,,2013-08-08 06:52:00,